Regional Weather Roundup
Issued by NWS

Home | Current Version | Previous Version | Graphics & Text | Print | Product List | Glossary On
Versions: 1 2 3 4 5 6 7 8 9 10 11 12 13 14 15 16 17 18 19 20 21 22 23 24 25 26 27 28 29 30 31 32 33 34 35 36 37 38 39 40 41 42 43 44 45 46 47 48 49 50
000
ASUS43 KIND 221809
RWRIN

WEATHER ROUNDUP FOR INDIANA
NATIONAL WEATHER SERVICE INDIANAPOLIS IN
200 PM EDT TUE MAY 22 2018

NOTE: "FAIR" INDICATES FEW OR NO CLOUDS BELOW 12,000 FEET WITH NO
SIGNIFICANT WEATHER AND/OR OBSTRUCTIONS TO VISIBILITY.

* - STATION DOES NOT REPORT WEATHER SUCH AS PRECIPITATION OR FOG.

+ - STATION NOT QUALITY CONTROLLED BY THE NATIONAL WEATHER SERVICE.
    USE DATA WITH CAUTION...ESPECIALLY DEWPOINT AND RELATIVE
    HUMIDITY OBSERVATIONS.

INZ001>003-010>013-019-020-221900-
NORTHWEST INDIANA

CITY           SKY/WX    TMP DP  RH WIND       PRES   REMARKS
GARY /AIRPORT/ CLOUDY    55  54  94 NE6       30.09S FOG
KNOX *+        CLOUDY    64  59  82 NW13      30.06R
LA PORTE +     CLOUDY    60  56  85 NW9       30.08R
6HR MIN TEMP:  56; 6HR MAX TEMP:  65;

MICHIGAN CITY+ CLOUDY    52  52 100 NW5       30.09S
MONTICELLO +   PTSUNNY   76  60  56 NW12      30.03F
6HR MIN TEMP:  66; 6HR MAX TEMP:  76;

RENSSELAER +   FAIR      75  54  46 NW8       30.04F
VALPARAISO     CLOUDY    66  57  72 N7        30.07S
6HR MIN TEMP:  56; 6HR MAX TEMP:  66;


$$

LMZ046-743>745-221900-
SOUTHERN LAKE MICHIGAN

STATION/POSITION TIME  TEMP    WIND        PRES    WAVE
                       AIR SEA DIR/SP/G            HT
                 (UTC) (F)     (DEG/KT/KT) (MB)    (FT)
BURNS HARBOR     1740   49        CALM     1019.3S
MICHIGAN CITY    1740   48     290/  4/  5   N/A
5NW MICH CITY    1800   46 53   20/  6/  8   N/A     1

$$

INZ004-005-014>016-021>024-221900-
NORTH CENTRAL INDIANA

CITY           SKY/WX    TMP DP  RH WIND       PRES   REMARKS
ELKHART        PTSUNNY   68  59  73 NW12      30.04S
GOSHEN         CLOUDY    71  63  75 NW14      30.02F
6HR MIN TEMP:  61; 6HR MAX TEMP:  72;

LOGANSPORT +   FAIR      77  61  57 NW8G17    30.04S
ROCHESTER +    FAIR      77  63  61 W8        30.04S
SOUTH BEND     CLOUDY    63  57  81 NW9       30.06S
6HR MIN TEMP:  58; 6HR MAX TEMP:  68;

WARSAW +       PTSUNNY   72  61  68 W12G17    30.03F

$$

INZ006>009-017-018-025>027-221900-
NORTHEAST INDIANA

CITY           SKY/WX    TMP DP  RH WIND       PRES   REMARKS
ANGOLA *+      FAIR      73  63  68 W12G20    30.00F
AUBURN +       FAIR      73  64  73 W12G21    30.01F
FORT WAYNE     PTSUNNY   78  64  61 NW15      30.00F
6HR MIN TEMP:  65; 6HR MAX TEMP:  80;

HUNTINGTON +   FAIR      77  64  65 W12G17    30.00F
6HR MIN TEMP:  65; 6HR MAX TEMP:  77; 6HR PCP:  0.01;


$$

INZ028-029-035-036-043>045-051>053-221900-
WEST CENTRAL INDIANA

CITY           SKY/WX    TMP DP  RH WIND       PRES   REMARKS
CRAWFORDSVL +  PTSUNNY   76  65  68 NW7       30.03F
6HR MIN TEMP:  64; 6HR MAX TEMP:  77;

GREENCASTLE +  FAIR      81  64  57 W8        30.03F
LAFAYETTE      PTSUNNY   78  64  61 NW13G20   30.02F
6HR MIN TEMP:  65; 6HR MAX TEMP:  78; 6HR PCP: TRACE;

TERRE HAUTE    FAIR      81  66  60 NW6G17    30.02F
6HR MIN TEMP:  67; 6HR MAX TEMP:  83;


$$

INZ030>032-037>040-046>048-054>057-064-065-221900-
CENTRAL INDIANA

CITY           SKY/WX    TMP DP  RH WIND       PRES   REMARKS
COLUMBUS       PTSUNNY   81  64  57 SW9       30.02F
FISHERS *+     PTSUNNY  N/A N/A N/A W10G17    30.02S
FRANKFORT +    PTSUNNY  N/A N/A N/A W7        30.04F
GREENWOOD *+   PTSUNNY   77  67  70 W7        30.02F
6HR MIN TEMP:  65; 6HR MAX TEMP:  80;

INDIANAPOLIS   PTSUNNY   77  68  73 S9        30.01F
6HR MIN TEMP:  66; 6HR MAX TEMP:  81;

-EAGLE CREEK   FAIR      81  65  58 W12G18    30.01F
6HR MIN TEMP:  67; 6HR MAX TEMP:  82;

KOKOMO +       PTSUNNY   78  65  63 W16       30.03F
6HR MIN TEMP:  67; 6HR MAX TEMP:  78;

MARION +       FAIR      77  65  67 W12       30.02S
MT COMFORT *+  PTSUNNY   75  72  88 SW3       30.02F
SHELBYVILLE    FAIR      80  68  66 SW10      30.01F
6HR MIN TEMP:  70; 6HR MAX TEMP:  82;

ZIONSVILLE +   PTSUNNY   77  65  65 W10       30.03F
6HR MIN TEMP:  65; 6HR MAX TEMP:  79;


$$

INZ033-034-041-042-049-050-058-059-221900-
EAST CENTRAL INDIANA

CITY           SKY/WX    TMP DP  RH WIND       PRES   REMARKS
MUNCIE         PTSUNNY   82  65  56 W14G21    30.01S
6HR MIN TEMP:  70; 6HR MAX TEMP:  83; 6HR PCP:  0.01;

RICHMOND +     FAIR      79  70  73 SW13      30.04S

$$

INZ060-061-067>069-081>083-085>088-221900-
SOUTHWEST INDIANA

CITY           SKY/WX    TMP DP  RH WIND       PRES   REMARKS
EVANSVILLE     FAIR      84  68  58 SW8       30.03F
6HR MIN TEMP:  70; 6HR MAX TEMP:  84; 6HR PCP:  0.07;

HUNTINGBURG +  FAIR      83  71  67 VRB6      30.03F
6HR MIN TEMP:  69; 6HR MAX TEMP:  83;

WASHINGTON +   PTSUNNY   85  61  43 SW8       30.01F
6HR MIN TEMP:  68; 6HR MAX TEMP:  85; 6HR PCP:  0.10;


$$

INZ062-063-066-070>080-084-089>092-221900-
SOUTH CENTRAL AND SOUTHEAST INDIANA

CITY           SKY/WX    TMP DP  RH WIND       PRES   REMARKS
BATESVILLE +   MOSUNNY   81  70  69 VRB5      30.03F
BEDFORD +      PTSUNNY   82  68  61 W6        30.01F
BLOOMINGTON    FAIR      81  68  64 VRB5      30.02F
6HR MIN TEMP:  69; 6HR MAX TEMP:  82; 6HR PCP: TRACE;

FRENCH LICK *+ CLOUDY    79  61  53 SW5       30.04F
MADISON *+     FAIR      82  68  61 W7        30.05F
NORTH VERNON + FAIR      79  68  69 SW6       30.02F
SEYMOUR +      FAIR      84  66  54 SW7       30.01F

$$





USA.gov is the U.S. government's official web portal to all federal, state and local government web resources and services.